| time (UTC) | temp F | wind direction | speed MPH | gust MPH | rain 1hr in | rain 24hr in | rain mn in | humidity % | barometer mb |
| 20260506034002 | 48 | 148 | 0.0 | 2.0 | 0.05 | 0.52 | 0.52 | 97 | 1014.1 |
| 20260506033003 | 48 | 148 | 0.0 | 3.0 | 0.06 | 0.52 | 0.52 | 97 | 1014.3 |
| 20260506031003 | 49 | 148 | 1.0 | 2.0 | 0.06 | 0.50 | 0.50 | 97 | 1014.5 |
| 20260506030002 | 49 | 148 | 0.0 | 1.0 | 0.06 | 0.49 | 0.49 | 97 | 1014.5 |
| 20260506023002 | 49 | 148 | 0.0 | 0.0 | 0.05 | 0.46 | 0.46 | 97 | 1014.7 |
| 20260506022003 | 49 | 148 | 0.0 | 0.0 | 0.05 | 0.45 | 0.45 | 97 | 1014.7 |
| 20260506021002 | 49 | 148 | 0.0 | 0.0 | 0.04 | 0.44 | 0.44 | 97 | 1014.9 |
| 20260506020002 | 49 | 148 | 1.0 | 2.0 | 0.04 | 0.43 | 0.43 | 97 | 1014.9 |
| 20260506015002 | 49 | 148 | 0.0 | 1.0 | 0.05 | 0.43 | 0.43 | 97 | 1014.8 |
| 20260506013003 | 49 | 148 | 0.0 | 0.0 | 0.07 | 0.41 | 0.41 | 97 | 1014.5 |
| 20260506012002 | 49 | 148 | 0.0 | 2.0 | 0.08 | 0.40 | 0.40 | 97 | 1014.4 |
| 20260506011003 | 49 | 169 | 1.0 | 2.0 | 0.09 | 0.40 | 0.40 | 97 | 1014.2 |
| 20260506005002 | 48 | 173 | 0.0 | 1.0 | 0.09 | 0.38 | 0.38 | 97 | 1014.6 |
| 20260506004002 | 48 | 173 | 0.0 | 2.0 | 0.08 | 0.36 | 0.36 | 96 | 1014.3 |
| 20260506003003 | 48 | 173 | 0.0 | 2.0 | 0.07 | 0.34 | 0.34 | 96 | 1014.3 |
| 20260506002002 | 48 | 133 | 1.0 | 2.0 | 0.06 | 0.32 | 0.32 | 96 | 1014.1 |
| 20260506000002 | 48 | 286 | 0.0 | 0.0 | 0.06 | 0.30 | 0.30 | 95 | 1013.9 |
| 20260505235002 | 48 | 286 | 0.0 | 0.0 | 0.06 | 0.29 | 0.29 | 95 | 1013.7 |
| 20260505234002 | 48 | 286 | 0.0 | 1.0 | 0.06 | 0.28 | 0.28 | 95 | 1013.4 |
| 20260505233002 | 48 | 286 | 0.0 | 0.0 | 0.07 | 0.27 | 0.27 | 95 | 1013.4 |
| 20260505232002 | 48 | 286 | 0.0 | 0.0 | 0.09 | 0.26 | 0.26 | 94 | 1013.6 |
| 20260505231003 | 48 | 286 | 0.0 | 1.0 | 0.11 | 0.25 | 0.25 | 95 | 1013.6 |
| 20260505230004 | 48 | 286 | 0.0 | 0.0 | 0.13 | 0.24 | 0.24 | 95 | 1013.7 |
| 20260505225003 | 48 | 286 | 0.0 | 0.0 | 0.15 | 0.23 | 0.23 | 94 | 1013.9 |
| 20260505224003 | 48 | 286 | 0.0 | 2.0 | 0.16 | 0.22 | 0.22 | 93 | 1014.0 |
| 20260505223003 | 48 | 342 | 0.0 | 2.0 | 0.17 | 0.20 | 0.20 | 93 | 1013.8 |
| 20260505222003 | 48 | 190 | 0.0 | 2.0 | 0.16 | 0.17 | 0.17 | 92 | 1013.8 |
| 20260505221003 | 49 | 125 | 0.0 | 2.0 | 0.14 | 0.14 | 0.14 | 91 | 1013.5 |
| 20260505220003 | 49 | 123 | 1.0 | 2.0 | 0.11 | 0.11 | 0.11 | 90 | 1013.6 |
| 20260505215003 | 50 | 31 | 0.0 | 2.0 | 0.08 | 0.08 | 0.08 | 89 | 1013.5 |
| 20260505214004 | 51 | 323 | 1.0 | 2.0 | 0.06 | 0.06 | 0.06 | 88 | 1013.7 |
| 20260505212003 | 53 | 300 | 0.0 | 7.0 | 0.01 | 0.01 | 0.01 | 82 | 1013.3 |
| 20260505211002 | 54 | 322 | 1.0 | 3.0 | 0.00 | 0.00 | 0.00 | 80 | 1013.0 |
| 20260505210003 | 56 | 295 | 3.0 | 10.0 | 0.00 | 0.00 | 0.00 | 76 | 1012.4 |
| 20260505203003 | 60 | 335 | 1.0 | 5.0 | 0.00 | 0.00 | 0.00 | 70 | 1011.3 |
| 20260505202003 | 61 | 288 | 2.0 | 7.0 | 0.00 | 0.00 | 0.00 | 69 | 1011.1 |
| 20260505201003 | 62 | 285 | 2.0 | 5.0 | 0.00 | 0.00 | 0.00 | 72 | 1011.0 |
| 20260505200003 | 62 | 329 | 1.0 | 3.0 | 0.00 | 0.00 | 0.00 | 69 | 1010.5 |
| 20260505195003 | 63 | 281 | 2.0 | 3.0 | 0.00 | 0.00 | 0.00 | 70 | 1010.5 |
| 20260505193004 | 63 | 245 | 1.0 | 3.0 | 0.00 | 0.00 | 0.00 | 72 | 1010.3 |
| 20260505190003 | 66 | 267 | 1.0 | 5.0 | 0.00 | 0.00 | 0.00 | 69 | 1010.3 |
| 20260505185003 | 66 | 315 | 2.0 | 5.0 | 0.00 | 0.00 | 0.00 | 68 | 1010.1 |
| 20260505184003 | 66 | 36 | 3.0 | 6.0 | 0.00 | 0.00 | 0.00 | 71 | 1010.0 |
| 20260505183003 | 66 | 271 | 1.0 | 5.0 | 0.00 | 0.00 | 0.00 | 71 | 1010.1 |
| 20260505182003 | 65 | 298 | 1.0 | 5.0 | 0.00 | 0.00 | 0.00 | 71 | 1009.9 |
| 20260505181003 | 64 | 279 | 1.0 | 5.0 | 0.00 | 0.00 | 0.00 | 72 | 1009.9 |
| 20260505180003 | 65 | 321 | 2.0 | 5.0 | 0.00 | 0.00 | 0.00 | 72 | 1009.7 |
| 20260505175003 | 65 | 310 | 2.0 | 3.0 | 0.00 | 0.00 | 0.00 | 73 | 1009.3 |
| 20260505173003 | 68 | 314 | 3.0 | 14.0 | 0.00 | 0.00 | 0.00 | 67 | 1009.2 |
| 20260505172004 | 69 | 242 | 7.0 | 18.0 | 0.00 | 0.00 | 0.00 | 65 | 1008.9 |
| 20260505171003 | 69 | 246 | 7.0 | 17.0 | 0.00 | 0.00 | 0.00 | 65 | 1008.9 |
| 20260505170003 | 70 | 241 | 6.0 | 14.0 | 0.00 | 0.00 | 0.00 | 65 | 1008.7 |
| 20260505165004 | 71 | 253 | 6.0 | 16.0 | 0.00 | 0.00 | 0.00 | 63 | 1008.7 |
| 20260505164003 | 70 | 236 | 7.0 | 17.0 | 0.00 | 0.00 | 0.00 | 63 | 1008.6 |
| 20260505163004 | 70 | 238 | 5.0 | 14.0 | 0.00 | 0.00 | 0.00 | 65 | 1008.4 |
| 20260505162003 | 70 | 230 | 5.0 | 17.0 | 0.00 | 0.00 | 0.00 | 66 | 1008.3 |
| 20260505161003 | 70 | 245 | 7.0 | 14.0 | 0.00 | 0.00 | 0.00 | 64 | 1008.3 |
| 20260505153003 | 70 | 230 | 5.0 | 15.0 | 0.00 | 0.00 | 0.00 | 65 | 1008.3 |
| 20260505152003 | 69 | 238 | 6.0 | 14.0 | 0.00 | 0.00 | 0.00 | 66 | 1008.0 |
| 20260505151004 | 68 | 251 | 5.0 | 13.0 | 0.00 | 0.00 | 0.00 | 67 | 1007.7 |
| 20260505123004 | 65 | 202 | 3.0 | 8.0 | 0.00 | 0.00 | 0.00 | 75 | 1006.7 |
| 20260505122004 | 65 | 227 | 2.0 | 6.0 | 0.00 | 0.00 | 0.00 | 73 | 1006.8 |
| 20260505121004 | 65 | 207 | 3.0 | 9.0 | 0.00 | 0.00 | 0.00 | 73 | 1006.7 |
| 20260505120002 | 65 | 223 | 4.0 | 8.0 | 0.00 | 0.00 | 0.00 | 74 | 1006.5 |
| 20260505115002 | 64 | 235 | 2.0 | 12.0 | 0.00 | 0.00 | 0.00 | 75 | 1006.4 |
| 20260505114002 | 64 | 213 | 3.0 | 9.0 | 0.00 | 0.00 | 0.00 | 77 | 1006.4 |
| 20260505113002 | 63 | 222 | 3.0 | 8.0 | 0.00 | 0.00 | 0.00 | 78 | 1006.3 |
| 20260505111001 | 63 | 230 | 2.0 | 6.0 | 0.00 | 0.00 | 0.00 | 79 | 1006.0 |
| 20260505102001 | 61 | 218 | 2.0 | 9.0 | 0.00 | 0.00 | 0.00 | 80 | 1005.2 |
| 20260505101001 | 61 | 239 | 3.0 | 12.0 | 0.00 | 0.00 | 0.00 | 82 | 1005.2 |
| 20260505100002 | 60 | 234 | 3.0 | 12.0 | 0.00 | 0.00 | 0.00 | 83 | 1005.0 |
| 20260505095001 | 60 | 241 | 2.0 | 7.0 | 0.00 | 0.00 | 0.00 | 84 | 1005.1 |
| 20260505094002 | 59 | 242 | 3.0 | 9.0 | 0.00 | 0.00 | 0.00 | 86 | 1004.9 |
| 20260505093001 | 58 | 193 | 1.0 | 9.0 | 0.00 | 0.00 | 0.00 | 87 | 1004.9 |
| 20260505092002 | 58 | 213 | 1.0 | 3.0 | 0.00 | 0.00 | 0.00 | 87 | 1004.8 |
| 20260505091001 | 58 | 211 | 1.0 | 5.0 | 0.00 | 0.00 | 0.00 | 87 | 1004.7 |
| 20260505090001 | 58 | 204 | 2.0 | 6.0 | 0.00 | 0.00 | 0.00 | 87 | 1005.0 |
| 20260505085002 | 58 | 228 | 4.0 | 14.0 | 0.00 | 0.00 | 0.00 | 88 | 1005.1 |
| 20260505084002 | 58 | 176 | 2.0 | 9.0 | 0.00 | 0.00 | 0.00 | 88 | 1005.3 |
| 20260505083002 | 57 | 188 | 2.0 | 5.0 | 0.00 | 0.00 | 0.00 | 88 | 1005.3 |
| 20260505081002 | 58 | 180 | 3.0 | 8.0 | 0.00 | 0.00 | 0.00 | 88 | 1005.5 |
| 20260505080003 | 58 | 190 | 2.0 | 10.0 | 0.00 | 0.00 | 0.00 | 87 | 1005.4 |
| 20260505075002 | 59 | 233 | 1.0 | 3.0 | 0.00 | 0.00 | 0.00 | 86 | 1005.4 |
| 20260505074002 | 59 | 219 | 2.0 | 14.0 | 0.00 | 0.00 | 0.00 | 86 | 1005.5 |
| 20260505073003 | 60 | 187 | 2.0 | 8.0 | 0.00 | 0.00 | 0.00 | 85 | 1005.5 |
| 20260505071002 | 60 | 200 | 1.0 | 9.0 | 0.00 | 0.00 | 0.00 | 83 | 1005.5 |
| 20260505070002 | 60 | 233 | 2.0 | 8.0 | 0.00 | 0.00 | 0.00 | 84 | 1005.5 |
| 20260505064002 | 61 | 196 | 5.0 | 10.0 | 0.00 | 0.00 | 0.00 | 81 | 1006.5 |
| 20260505062003 | 62 | 231 | 3.0 | 12.0 | 0.00 | 0.00 | 0.00 | 79 | 1006.7 |
| 20260505061002 | 62 | 231 | 6.0 | 14.0 | 0.00 | 0.00 | 0.00 | 76 | 1006.6 |
| 20260505060003 | 63 | 226 | 4.0 | 12.0 | 0.00 | 0.00 | 0.00 | 74 | 1006.4 |
| 20260505055002 | 64 | 201 | 3.0 | 9.0 | 0.00 | 0.00 | 0.00 | 71 | 1006.7 |
| 20260505054002 | 64 | 240 | 4.0 | 10.0 | 0.00 | 0.00 | 0.00 | 70 | 1006.5 |
| 20260505053003 | 65 | 238 | 5.0 | 9.0 | 0.00 | 0.00 | 0.00 | 69 | 1006.6 |
| 20260505052003 | 65 | 220 | 4.0 | 15.0 | 0.00 | 0.00 | 0.00 | 69 | 1006.6 |
| 20260505051002 | 65 | 208 | 5.0 | 16.0 | 0.00 | 0.00 | 0.00 | 69 | 1006.5 |
| 20260505041003 | 62 | 219 | 3.0 | 8.0 | 0.00 | 0.00 | 0.00 | 71 | 1006.4 |
| 20260505040004 | 61 | 200 | 2.0 | 5.0 | 0.00 | 0.00 | 0.00 | 70 | 1006.3 |